Location: Newark
(52.4787°S, 179.0532°W)
Time: 03:02:26
(UTC+00:00)

Transit 2A - Visible Passes

Search period start: 15 November 2019 00:00
Search period end: 25 November 2019 00:00
Orbit: 601 x 957 km, 66.7° (Epoch: 14 November)

Date Brightness Start Highest point End Pass type
(mag) Time Alt. Az. Time Alt. Az. Time Alt. Az.
15 Nov 8.1 11:39:34 14° ENE 11:41:24 16° ENE 11:44:51 10° ESE visible
15 Nov 6.4 13:20:02 25° NNW 13:23:32 71° ENE 13:29:44 10° SE visible
15 Nov 7.4 15:01:50 10° W 15:07:19 38° SSW 15:13:12 10° SE visible
16 Nov 8.3 11:06:08 10° ENE 11:07:39 11° E 11:09:16 10° E visible
16 Nov 6.6 12:46:36 28° N 12:49:29 55° ENE 12:55:31 10° SE visible
16 Nov 7.2 14:27:21 10° WNW 14:32:58 45° SW 14:39:01 10° SE visible
17 Nov 6.9 12:13:07 28° NNE 12:15:29 41° ENE 12:21:14 10° SE visible
17 Nov 6.9 13:53:35 13° WNW 13:58:40 55° SW 14:04:52 10° SE visible
18 Nov 7.3 11:39:35 25° NE 11:41:33 31° ENE 11:46:52 10° SE visible
18 Nov 6.5 13:20:03 18° NW 13:24:24 69° SW 13:30:43 10° SE visible
19 Nov 7.6 11:06:01 21° NE 11:07:41 23° ENE 11:12:23 10° ESE visible
19 Nov 6.3 12:46:28 24° NW 12:50:13 86° SW 12:56:33 10° SE visible
19 Nov 7.8 14:29:00 10° W 14:34:22 32° SSW 14:40:01 10° SE visible
20 Nov 7.9 10:32:23 16° ENE 10:33:52 17° ENE 10:37:40 10° ESE visible
20 Nov 6.3 12:12:51 28° NNW 12:16:06 75° NE 12:22:22 10° SE visible
20 Nov 7.6 13:54:26 10° W 13:59:57 37° SSW 14:05:49 10° SE visible
21 Nov 8.1 09:58:42 11° ENE 10:00:08 12° E 10:02:24 10° ESE visible
21 Nov 6.5 11:39:09 29° N 11:42:01 58° ENE 11:48:09 10° SE visible
21 Nov 7.3 13:19:56 10° WNW 13:25:35 44° SW 13:31:39 10° SE visible
22 Nov 6.8 11:05:23 28° N 11:08:00 44° ENE 11:13:53 10° SE visible
22 Nov 7.0 12:45:50 12° WNW 12:51:16 53° SW 12:57:29 10° SE visible
22 Nov 8.3 14:30:54 10° WSW 14:35:56 25° SSW 14:41:10 10° SE visible
23 Nov 7.1 10:31:33 24° NNE 10:34:04 33° ENE 10:39:32 10° SE visible
23 Nov 6.7 12:11:59 14° NW 12:17:00 66° SW 12:23:20 10° SE visible
23 Nov 8.2 13:56:15 10° W 14:01:27 28° SSW 14:06:53 10° SE visible
24 Nov 7.4 09:57:37 19° NE 10:00:12 25° ENE 10:05:04 10° SE visible
24 Nov 6.4 11:38:03 16° NW 11:42:48 82° SW 11:49:10 10° SE visible
24 Nov 8.0 13:21:38 10° W 13:27:00 31° SSW 13:32:38 10° SE visible
